EN

Hourly Weather Dziewuliny

Today, 23 October, Friday

Time Temperature Precipitation Wind Pressure Humidity
00:00 +12°C° 0 mm 3 mps 743 mmHg 78%
01:00 +12°C° 0 mm 3 mps 743 mmHg 78%
02:00 +12°C° 0 mm 3 mps 743 mmHg 78%
03:00 +12°C° 0 mm 3 mps 742 mmHg 79%
04:00 +12°C° 0 mm 3 mps 742 mmHg 79%
05:00 +12°C° 0 mm 3 mps 742 mmHg 79%
06:00 +12°C° 0 mm 3 mps 742 mmHg 80%
07:00 +12°C° 0 mm 3 mps 742 mmHg 80%
08:00 +13°C° 0 mm 3 mps 742 mmHg 76%
09:00 +14°C° 0 mm 4 mps 741 mmHg 73%
10:00 +14°C° 0 mm 4 mps 741 mmHg 69%
11:00 +15°C° 0 mm 4 mps 741 mmHg 68%
12:00 +17°C° 0 mm 3 mps 741 mmHg 66%
13:00 +17°C° 0 mm 3 mps 741 mmHg 65%
14:00 +17°C° 0 mm 2 mps 741 mmHg 67%
15:00 +16°C° 0 mm 2 mps 741 mmHg 69%
16:00 +16°C° 0 mm 1 mps 740 mmHg 72%
17:00 +16°C° 0 mm 1 mps 740 mmHg 73%
18:00 +15°C° 0 mm 1 mps 740 mmHg 74%
19:00 +15°C° 0 mm 2 mps 740 mmHg 75%
20:00 +15°C° 0 mm 2 mps 740 mmHg 77%
21:00 +14°C° 0 mm 2 mps 740 mmHg 78%
22:00 +14°C° 0 mm 2 mps 740 mmHg 79%
23:00 +14°C° 0.2 mm 2 mps 740 mmHg 81%

Tomorrow, 24 October, Saturday

Time Temperature Precipitation Wind Pressure Humidity
00:00 +14°C° 0.2 mm 2 mps 740 mmHg 83%
01:00 +13°C° 0.2 mm 2 mps 740 mmHg 85%
02:00 +13°C° 0.9 mm 2 mps 740 mmHg 88%
03:00 +12°C° 0.9 mm 3 mps 740 mmHg 90%
04:00 +12°C° 0.9 mm 3 mps 739 mmHg 93%
05:00 +12°C° 1.9 mm 4 mps 739 mmHg 94%
06:00 +12°C° 1.9 mm 4 mps 740 mmHg 95%
07:00 +12°C° 1.9 mm 5 mps 740 mmHg 95%
08:00 +13°C° 0.5 mm 5 mps 740 mmHg 93%
09:00 +13°C° 0.5 mm 5 mps 740 mmHg 90%
10:00 +14°C° 0.5 mm 5 mps 741 mmHg 88%
11:00 +14°C° 0.1 mm 5 mps 741 mmHg 83%
12:00 +15°C° 0.1 mm 5 mps 742 mmHg 78%
13:00 +16°C° 0.1 mm 5 mps 742 mmHg 73%
14:00 +15°C° 0.1 mm 5 mps 742 mmHg 74%
15:00 +14°C° 0.1 mm 4 mps 742 mmHg 75%
16:00 +14°C° 0.1 mm 4 mps 743 mmHg 77%
17:00 +13°C° 0 mm 3 mps 743 mmHg 80%
18:00 +12°C° 0 mm 3 mps 744 mmHg 83%
19:00 +12°C° 0 mm 2 mps 744 mmHg 86%
20:00 +10°C° 0 mm 2 mps 744 mmHg 87%
21:00 +10°C° 0 mm 2 mps 745 mmHg 88%
22:00 +10°C° 0 mm 2 mps 745 mmHg 89%
23:00 +9°C° 0 mm 2 mps 745 mmHg 89%

Day after tomorrow, 25 October, Sunday

Time Temperature Precipitation Wind Pressure Humidity
00:00 +10°C° 0 mm 1 mps 745 mmHg 90%
01:00 +10°C° 0 mm 1 mps 745 mmHg 90%
02:00 +9°C° 0 mm 2 mps 745 mmHg 90%
03:00 +9°C° 0 mm 2 mps 745 mmHg 90%
04:00 +10°C° 0 mm 2 mps 745 mmHg 90%
05:00 +9°C° 0 mm 2 mps 745 mmHg 91%
06:00 +9°C° 0 mm 2 mps 745 mmHg 92%
07:00 +9°C° 0 mm 2 mps 745 mmHg 93%
08:00 +10°C° 0 mm 2 mps 745 mmHg 87%
09:00 +12°C° 0 mm 3 mps 745 mmHg 82%
10:00 +13°C° 0 mm 3 mps 745 mmHg 76%
11:00 +14°C° 0 mm 3 mps 745 mmHg 72%
12:00 +16°C° 0 mm 3 mps 744 mmHg 68%
13:00 +17°C° 0 mm 3 mps 744 mmHg 64%
14:00 +16°C° 0 mm 3 mps 744 mmHg 68%
15:00 +14°C° 0 mm 3 mps 743 mmHg 71%
16:00 +14°C° 0 mm 3 mps 743 mmHg 74%
17:00 +13°C° 0 mm 3 mps 743 mmHg 77%
18:00 +12°C° 0 mm 4 mps 743 mmHg 79%
19:00 +11°C° 0 mm 4 mps 743 mmHg 82%
20:00 +11°C° 0 mm 4 mps 743 mmHg 83%
21:00 +10°C° 0 mm 4 mps 743 mmHg 85%
22:00 +10°C° 0 mm 4 mps 743 mmHg 86%
23:00 +10°C° 0 mm 3 mps 742 mmHg 88%

, 26 October, Monday

Time Temperature Precipitation Wind Pressure Humidity
00:00 +9°C° 0 mm 3 mps 742 mmHg 89%
01:00 +9°C° 0 mm 3 mps 742 mmHg 91%
02:00 +9°C° 0 mm 3 mps 741 mmHg 92%
03:00 +8°C° 0 mm 3 mps 741 mmHg 92%
04:00 +8°C° 0 mm 3 mps 741 mmHg 93%
05:00 +8°C° 0 mm 3 mps 740 mmHg 93%
06:00 +8°C° 0 mm 3 mps 740 mmHg 93%
07:00 +8°C° 0 mm 3 mps 740 mmHg 93%
08:00 +8°C° 0 mm 4 mps 740 mmHg 87%
09:00 +11°C° 0 mm 4 mps 739 mmHg 81%
10:00 +12°C° 0 mm 5 mps 739 mmHg 74%
11:00 +14°C° 0 mm 5 mps 739 mmHg 72%
12:00 +15°C° 0 mm 5 mps 738 mmHg 70%
13:00 +16°C° 0 mm 5 mps 738 mmHg 67%
14:00 +15°C° 0 mm 5 mps 738 mmHg 71%
15:00 +14°C° 0 mm 4 mps 737 mmHg 75%
16:00 +14°C° 0 mm 3 mps 737 mmHg 79%
17:00 +13°C° 0 mm 4 mps 737 mmHg 80%
18:00 +12°C° 0 mm 4 mps 737 mmHg 82%
19:00 +12°C° 0 mm 4 mps 737 mmHg 83%
20:00 +12°C° 0 mm 4 mps 737 mmHg 84%
21:00 +11°C° 0 mm 3 mps 737 mmHg 85%
22:00 +11°C° 0 mm 3 mps 737 mmHg 87%
23:00 +11°C° 0 mm 3 mps 737 mmHg 85%

26 October, Monday

Time Temperature Precipitation Wind Pressure Humidity
00:00 +9°C° 0 mm 3 mps 742 mmHg 89%
01:00 +9°C° 0 mm 3 mps 742 mmHg 91%
02:00 +9°C° 0 mm 3 mps 741 mmHg 92%
03:00 +8°C° 0 mm 3 mps 741 mmHg 92%
04:00 +8°C° 0 mm 3 mps 741 mmHg 93%
05:00 +8°C° 0 mm 3 mps 740 mmHg 93%
06:00 +8°C° 0 mm 3 mps 740 mmHg 93%
07:00 +8°C° 0 mm 3 mps 740 mmHg 93%
08:00 +8°C° 0 mm 4 mps 740 mmHg 87%
09:00 +11°C° 0 mm 4 mps 739 mmHg 81%
10:00 +12°C° 0 mm 5 mps 739 mmHg 74%
11:00 +14°C° 0 mm 5 mps 739 mmHg 72%
12:00 +15°C° 0 mm 5 mps 738 mmHg 70%
13:00 +16°C° 0 mm 5 mps 738 mmHg 67%
14:00 +15°C° 0 mm 5 mps 738 mmHg 71%
15:00 +14°C° 0 mm 4 mps 737 mmHg 75%
16:00 +14°C° 0 mm 3 mps 737 mmHg 79%
17:00 +13°C° 0 mm 4 mps 737 mmHg 80%
18:00 +12°C° 0 mm 4 mps 737 mmHg 82%
19:00 +12°C° 0 mm 4 mps 737 mmHg 83%
20:00 +12°C° 0 mm 4 mps 737 mmHg 84%
21:00 +11°C° 0 mm 3 mps 737 mmHg 85%
22:00 +11°C° 0 mm 3 mps 737 mmHg 87%
23:00 +11°C° 0 mm 3 mps 737 mmHg 85%

27 October, Tuesday

Time Temperature Precipitation Wind Pressure Humidity
00:00 +11°C° 0 mm 4 mps 737 mmHg 84%
01:00 +11°C° 0 mm 4 mps 737 mmHg 82%
02:00 +11°C° 0.1 mm 4 mps 737 mmHg 81%
03:00 +11°C° 0.1 mm 4 mps 737 mmHg 80%
04:00 +11°C° 0.1 mm 4 mps 737 mmHg 79%
05:00 +11°C° 0 mm 4 mps 737 mmHg 79%
06:00 +11°C° 0 mm 4 mps 738 mmHg 80%
07:00 +11°C° 0 mm 4 mps 738 mmHg 81%
08:00 +12°C° 0 mm 4 mps 738 mmHg 76%
09:00 +13°C° 0 mm 4 mps 738 mmHg 71%
10:00 +15°C° 0 mm 4 mps 739 mmHg 67%
11:00 +17°C° 0 mm 4 mps 739 mmHg 64%
12:00 +18°C° 0 mm 4 mps 739 mmHg 61%
13:00 +19°C° 0 mm 4 mps 740 mmHg 58%
14:00 +18°C° 0 mm 3 mps 739 mmHg 63%
15:00 +17°C° 0 mm 2 mps 739 mmHg 68%
16:00 +16°C° 0 mm 2 mps 739 mmHg 72%
17:00 +15°C° 0 mm 2 mps 740 mmHg 75%
18:00 +15°C° 0 mm 2 mps 740 mmHg 78%
19:00 +14°C° 0 mm 2 mps 740 mmHg 80%
20:00 +14°C° 0 mm 2 mps 740 mmHg 82%
21:00 +13°C° 0 mm 2 mps 741 mmHg 83%
22:00 +13°C° 0 mm 2 mps 741 mmHg 85%
23:00 +13°C° 0 mm 1 mps 741 mmHg 86%

28 October, Wednesday

Time Temperature Precipitation Wind Pressure Humidity
00:00 +12°C° 0 mm 1 mps 741 mmHg 87%
01:00 +11°C° 0 mm 0 mps 741 mmHg 88%
02:00 +12°C° 0 mm 1 mps 741 mmHg 88%
03:00 +11°C° 0 mm 1 mps 741 mmHg 89%
04:00 +11°C° 0 mm 1 mps 741 mmHg 89%
05:00 +11°C° 0 mm 1 mps 741 mmHg 89%
06:00 +11°C° 0 mm 1 mps 742 mmHg 89%
07:00 +11°C° 0 mm 1 mps 742 mmHg 90%
08:00 +12°C° 0 mm 1 mps 742 mmHg 84%
09:00 +13°C° 0 mm 1 mps 742 mmHg 78%
10:00 +15°C° 0 mm 1 mps 742 mmHg 73%
11:00 +15°C° 0 mm 1 mps 742 mmHg 70%
12:00 +16°C° 0 mm 1 mps 742 mmHg 67%
13:00 +17°C° 0 mm 2 mps 742 mmHg 63%
14:00 +16°C° 0 mm 2 mps 742 mmHg 68%
15:00 +16°C° 0 mm 2 mps 742 mmHg 72%
16:00 +15°C° 0 mm 2 mps 742 mmHg 76%
17:00 +14°C° 0 mm 2 mps 742 mmHg 80%
18:00 +13°C° 0 mm 2 mps 743 mmHg 83%
19:00 +13°C° 0 mm 2 mps 743 mmHg 87%
20:00 +12°C° 0 mm 2 mps 743 mmHg 89%
21:00 +12°C° 0 mm 2 mps 743 mmHg 90%
22:00 +12°C° 0 mm 2 mps 743 mmHg 91%
23:00 +12°C° 0 mm 2 mps 743 mmHg 92%
Show more